Location: Franzen
(48.6167°N, 15.3833°E)
Time: 10:35:14
(UTC+00:00)

Cosmos 1943 - Pass Details

Date: 22 April 2021
Orbit: 834 x 849 km, 71.0° (Epoch: 16 May)

Event Time Altitude Azimuth Distance (km) Brightness Sun altitude
Rises 19:58:04 0° 335° (NNW) 3,395 7.7 -17.3°
Reaches altitude 10° 20:00:49 10° 346° (NNW) 2,459 6.5 -17.6°
Maximum altitude 20:05:45 30° 48° (NE) 1,454 4.4 -18.2°
Enters shadow 20:08:26 21° 91° (E) 1,809 4.5 -18.5°
